User: anonymous   Login
Location: Buchloe
(48.0161°N, 10.7316°E)
Time: 09:52:26
(UTC+02:00)
Language:

ISS - Orbit

View from above orbital plane
View from above orbital plane
View from above satellite
View from above satellite

Ground track
Ground track

The orbit data is extracted from the following two-line orbital elements,

1 25544U 98067A   18147.88070465  .00016717  00000-0  10270-3 0  9039
2 25544  51.6366 119.9449 0003554 127.8246 232.3229 15.54100484 35354
Epoch (UTC): 27 May 2018 21:08:12
Eccentricity: 0.0003554
inclination: 51.6366°
perigee height: 402 km
apogee height: 407 km
right ascension of ascending node: 119.9449°
argument of perigee: 127.8246°
revolutions per day: 15.54100484
mean anomaly at epoch: 232.3229°
orbit number at epoch: 3535

The dashed part of the orbit path shows where the satellite is in the earth's shadow,  

DLR